Погода Нижний Чир

Погода Нижний Чир : погода сейчас, прогноз погоды и архив. Всё, что Вы хотите узнать о погоде Нижний Чир!

Хотите узнать прогноз погоды Нижний Чир? Тогда Вам сюда: Погода Нижний Чир

Поиск расширенной информации на нашем сайте:

Другие новости

Новости СМИ2

Главная страница сайта

Новости сайта

02.10.2013

Напоминаем, что на нашем новом сайте вы можете получить высокодетализированные прогнозы погоды по пунктам России, СНГ и мира (включающие важные для авиации метеовеличины, такие как направление и скорость ветра, видимость, явления погоды, количество и форма облачности, нижняя и верхняя граница облачности), а также ознакомиться с разнообразными материалами по авиационной метеорологии и подборкой полезных ссылок на эту тему.

Сайт Метеоцентр.Азия посвящён разработке технологий оптимизации авиаметеорологического обслуживания, включая проектирование и перспективное создание нескольких автоматизированных авиаметеорологических систем:
- система выпуска высокодетальных прогностических карт явлений погоды для нижнего воздушного пространства по России и ближнему зарубежью;
- система верификации прогнозов TAF (выпускаемых синоптиками официальных АМСГ РФ и ближнего зарубежья) и AUTOTAF (выпускаемых сайтом Метеоцентр.Азия) - выявление ошибок, онлайн-сопоставление с фактической погодой METAR, автоматическое внесение коррективов в прогнозы при резком отклонении фактической погоды от прогноза, подсчёт оправдываемости прогнозов по элементам и в целом;
- система обработки, анализа и отображения авиаметеорологической информации для применения провайдерами метеорологической информации.

Рекомендуем: Клиновая завдижка гранар.

Погода Нижний Чир - сегодня

Время (UTC), дата Ветер
(°,м/с) 
Видим.   Явления Облачность Т
(°С)
Тd
(°С)
f(%) Тe
(°С)
Pmin
(гПа)
dP
(гПа)
Po
(мм)
O2
(г/м3)
Тmin Tmax R s Состояние
почвы
00 22.03.17 360 (С) 20000 м  слаб. дождь{ливн. осадки}  10/10 300 м 
[Frnb|Ns]
+0.3 -0.9 92 -3  1014.4  0.4  754  304           
03 22.03.17 350 (С) 6-10{10}  10 км  {дождь}  10/10 300 м 
[St]
+0.7 -0.9 89 -3  1015.4  755  303  +0.1       
06 22.03.17 020 (С) 10-11{12}  20000 м  {дождь}  10/10 600 м 
[Sc diur, vesp]
+0.6 -2.2 81 -4  1016.3  0.9  755  304           
09 22.03.17 010 (С) 7{11}  20000 м    10/10 600 м 
[Sc diur, vesp]
+1.6 -2 77 -2  1016.9  0.7  756  303           
12 22.03.17 020 (С) 20000 м    10/10 600 м 
[Sc]
+1.7 -1.3 80 -1  1017.9  756  303           
15 22.03.17 040 (СВ) 20000 м    10/10 600 м 
[Sc]
+1.4 -0.7 86 -1  1019.2  1.3  758  304    +1.8       
18 22.03.17 030 (СВ) 20000 м    10/10 600 м 
[Sc]
+0.6 -1.1 88 -2  1020.9  1.6  759  305           
21 22.03.17 030 (СВ) 20000 м    10/10 600 м 
[Sc]
+0.1 -1.8 87 -3  1021.7  0.8  759  306           
00 23.03.17 030 (СВ) 20000 м    10/10 600 м 
[Sc]
-0.1 -1.8 88 -3  1022.2  0.5  760  306           
03 23.03.17 010 (С) 10 км    10/10 300 м 
[St]
-0.1 -1.8 88 -2  1023.4  1.1  761  307  -0.3         
06 23.03.17 020 (С) 20000 м    10/10 600 м 
[Sc]
+0.7 -1.2 87 1024.3  0.9  761  306           
09 23.03.17 060 (СВ) 20000 м    10/8 600 м верхняя 
[Cu Sc|Ci]
+3.5 -0.7 74 +4  1025  0.8  762  303           
12 23.03.17 130 (ЮВ) 20000 м    10/10 600 м 
[Sc]
+4.4 +0.3 75 +4  1025.2  0.2  762  302           
15 23.03.17 210 (ЮЗ) 20000 м    10/10 600 м 
[Sc]
+4.9 +0.7 74 +5  1025.9  0.7  763  302    +5       
18 23.03.17 220 (ЮЗ) 20000 м    4/0 верхняя 
[Ci fib]
+2.6 -0.1 82 +1  1026.8  0.8  763  305           
21 23.03.17 210 (ЮЗ) 20000 м    9/9 600 м 
[Sc]
+3.1 +0.8 85 +1  1027.1  0.3  763  304           
00 24.03.17 220 (ЮЗ) 20000 м    10/10 600 м 
[Sc]
+3.1 +1.2 87 +2  1027.1  763  304           
03 24.03.17 200 (Ю) 10 км    10/10 300 м 
[St]
+3.2 +1.4 88 +2  1027.1  763  304  +2.5         
06 24.03.17 200 (Ю) 10 км    10/10 600 м 
[Sc]
+4 +1.5 84 +1  1027.7  0.6  764  303           
09 24.03.17 220 (ЮЗ) 20000 м    10/10 600 м 
[Sc]
+5.2 +0.5 72 +3  1027.2  -0.5  764  302           
12 24.03.17 180 (Ю) 20000 м    10/10 600 м 
[Sc]
+7.7 +1.9 67 +6  1025.1  -2  762  298           
15 24.03.17 190 (Ю) 20000 м    10/10 600 м 
[Sc]
+8.4 +2 64 +7  1023  -1.9  761  297    +9       
18 24.03.17 190 (Ю) 7-10{10}  20000 м    10/10 600 м 
[Sc]
+6.9 +2.5 74 +4  1021.8  -1.3  760  298           
21 24.03.17 200 (Ю) 9-12{12}  20000 м    10/10 600 м 
[Sc]
+5.8 +1.6 74 +3  1020  -1.8  758  299           
00 25.03.17 210 (ЮЗ) 9-12{12}  20000 м    10/10 600 м 
[Sc]
+5 +2.9 86 +2  1017.8  -2.2  757  299           
Время (UTC), дата Ветер
(°,м/с) 
Видим.   Явления Облачность Т
(°С)
Тd
(°С)
f(%) Тe
(°С)
Pmin
(гПа)
dP
(гПа)
Po
(мм)
O2
(г/м3)
Тmin Tmax R s Состояние
почвы

Для получения пояснительной информации подведите курсор к названию столбца.

ПОГОДА Нижний Чир - архив

Всё, что Вы хотите узнать о погоде Нижний Чир - удобно и подробно!

Выберите нужную дату (начиная с 1 января 2015* года) и нажмите кнопку "Найти".
Будут отображены архивные сводки погоды по пункту Нижний Чир, начиная с указанной даты.


Отображать данные в формате CSV (для использования в таблицах Excel)


Внимание! Наш архив погоды предназначен исключительно для личного некоммерческого использования в познавательных целях. Если Вам необходимы официальные справки о состоянии погоды (для производственных, юридических, коммерческих и т.п. целей), обращайтесь в органы Росгидромета.

*Примечание: данная дата относится к архиву по метеостанциям СССР (Россия, СНГ, Балтия).
Архив по метеостанциям Зарубежной Европы и Азии (кроме Китая) хранится 10 дней, по другим регионам земного шара (Китай, Африка, Америка, Австралия, Океания) - 1 день.

Нижний Чир - район местоположения метеостанции


Название, широта, долгота, высота метеостанции:
Нижний Чир 48.3°ш. 43.1°д. 68 м над ур. моря [Российская Федерация]

Дополнительная информация

В oтличие oт бoльшинства пoгoдных сайтoв мы публикуем пoдрoбную метеoинфoрмацию в детальнoм прoфессиoнальнoм фoрмате.

Характеристики температуры и влажнoсти вoздуха измеряются на высoте 2 м в тени вдали oт зданий и деревьев.
Скoрoсть ветра измеряется на высoте 10 м (на урoвне рoста челoвека скoрoсть ветра ниже в 1.5-2 раза). Если метеoстанция нахoдится в гoрoде или в лесу, тo скoрoсть ветра занижена на 2-4 м/с пo сравнению с oткрытым местoм. Скoрoсть ветра над акватoриями крупных рек и oзёр, а также на вершинах хoлмoв на 2-5 м/с выше, чем в oбычных услoвиях.
Атмoсфернoе давление в разных тoчках местнoсти мoжет значительнo oтличаться oт давления на метеoстанции, в зависимoсти oт услoвий рельефа (при пoдъёме на 10 м давление пoнижается примернo на 1 мм рт.ст.).